Time,TemperatureF,DewpointF,PressureIn,WindDirection,WindDirectionDegrees,WindSpeedMPH,WindSpeedGustMPH,Humidity,HourlyPrecipIn,Conditions,Clouds,dailyrainin,SolarRadiationWatts/m^2,SoftwareType,DateUTC
2013-09-22 11:59:00,72.6,63.8,29.44,WSW,241,0.0,10.0,74,0.00,,,0.00,0,Wunderground v.1.15,2013-09-22 15:59:00,
2013-09-22 12:29:00,71.6,62.9,29.44,NNW,331,0.0,10.0,74,0.00,,,0.00,0,Wunderground v.1.15,2013-09-22 16:29:00,
2013-09-22 12:59:00,73.6,61.5,29.44,West,267,1.0,10.0,66,0.00,,,0.00,0,Wunderground v.1.15,2013-09-22 16:59:00,
2013-09-22 13:29:00,73.8,56.6,29.43,NW,305,3.0,10.0,55,0.00,,,0.00,0,Wunderground v.1.15,2013-09-22 17:29:00,
2013-09-22 13:59:00,74.7,56.9,29.42,West,280,2.0,10.0,54,0.00,,,0.00,0,Wunderground v.1.15,2013-09-22 17:59:00,
2013-09-22 14:29:00,73.5,56.3,29.42,WNW,287,1.0,10.0,55,0.00,,,0.00,0,Wunderground v.1.15,2013-09-22 18:29:00,
2013-09-22 14:59:00,74.8,56.0,29.42,WSW,254,2.0,10.0,52,0.00,,,0.00,0,Wunderground v.1.15,2013-09-22 18:59:00,
2013-09-22 15:29:00,75.0,55.6,29.42,SW,229,2.0,10.0,51,0.00,,,0.00,0,Wunderground v.1.15,2013-09-22 19:29:00,
2013-09-22 15:59:00,74.9,55.0,29.42,East,81,8.0,10.0,50,0.00,,,0.00,0,Wunderground v.1.15,2013-09-22 19:59:00,
2013-09-22 16:29:00,75.2,54.2,29.42,WSW,241,1.0,10.0,48,0.00,,,0.00,0,Wunderground v.1.15,2013-09-22 20:29:00,
2013-09-22 16:59:00,72.1,53.0,29.43,SW,232,0.0,10.0,51,0.00,,,0.00,0,Wunderground v.1.15,2013-09-22 20:59:00,
2013-09-22 17:29:00,67.7,53.8,29.44,North,0,3.0,10.0,61,0.00,,,0.00,0,Wunderground v.1.15,2013-09-22 21:29:00,
2013-09-22 17:59:00,65.6,53.1,29.45,West,270,0.0,10.0,64,0.00,,,0.00,0,Wunderground v.1.15,2013-09-22 21:59:00,
2013-09-22 18:29:00,64.2,52.2,29.46,NNW,334,0.0,10.0,65,0.00,,,0.00,0,Wunderground v.1.15,2013-09-22 22:29:00,
2013-09-22 18:59:00,62.7,52.0,29.47,NW,325,0.0,10.0,68,0.00,,,0.00,0,Wunderground v.1.15,2013-09-22 22:59:00,
2013-09-22 19:29:00,60.8,51.7,29.48,NW,326,0.0,10.0,72,0.00,,,0.00,0,Wunderground v.1.15,2013-09-22 23:29:00,
2013-09-22 19:59:00,59.3,51.7,29.49,NW,326,0.0,10.0,76,0.00,,,0.00,0,Wunderground v.1.15,2013-09-22 23:59:00,
2013-09-22 20:29:00,58.2,52.4,29.50,NW,326,1.0,10.0,81,0.00,,,0.00,0,Wunderground v.1.15,2013-09-23 00:29:00,
2013-09-22 20:59:00,57.0,52.2,29.51,NW,326,0.0,10.0,84,0.00,,,0.00,0,Wunderground v.1.15,2013-09-23 00:59:00,
2013-09-22 21:29:00,55.7,50.9,29.52,NW,326,0.0,10.0,84,0.00,,,0.00,0,Wunderground v.1.15,2013-09-23 01:29:00,
2013-09-22 21:59:00,54.8,50.7,29.53,NW,326,0.0,10.0,86,0.00,,,0.00,0,Wunderground v.1.15,2013-09-23 01:59:00,
2013-09-22 22:29:00,53.9,50.7,29.54,NW,326,0.0,10.0,89,0.00,,,0.00,0,Wunderground v.1.15,2013-09-23 02:29:00,
2013-09-22 22:59:00,53.3,50.4,29.55,NW,326,0.0,10.0,90,0.00,,,0.00,0,Wunderground v.1.15,2013-09-23 02:59:00,
2013-09-22 23:29:00,52.3,50.0,29.55,NNW,327,0.0,10.0,92,0.00,,,0.00,0,Wunderground v.1.15,2013-09-23 03:29:00,
2013-09-22 23:59:00,52.8,51.4,29.56,NNW,327,1.0,10.0,95,0.00,,,0.00,0,Wunderground v.1.15,2013-09-23 03:59:00,